This demonstration page uses our WeatherBlox Daily Observations layout. Learn more.

Left ArrowRight Arrow

39.95238, -75.16362

Hourly Observations for August 13, 2016

Temp ( °F °C ) Dew Point ( °F °C ) Humidity (%) Winds ( mph kmh ) Pressure ( in mb ) Visibility ( mi km ) Precip ( " mm )
12:54 am 00:54 Partly Cloudy 85 29.4 77 25 77 77 SSW 10 17 29.92 1013 10 16 0.00 0.00
1:54 am 01:54 Mostly Clear 84 28.9 77 25 80 80 SSW 9 15 29.91 1013 10 16 0.00 0.00
2:54 am 02:54 Mostly Clear 83 28.3 77 25 82 82 SSW 7 11 29.91 1013 10 16 0.00 0.00
3:54 am 03:54 Mostly Clear 83 28.3 77 25 82 82 SW 8 13 29.91 1013 10 16 0.00 0.00
4:54 am 04:54 Mostly Clear 83 28.3 77 25 82 82 SW 8 13 29.92 1013 10 16 0.00 0.00
5:54 am 05:54 Mostly Cloudy 82 27.8 77 25 85 85 SSW 7 11 29.93 1014 10 16 0.00 0.00
6:54 am 06:54 Mostly Cloudy 82 27.8 77 25 85 85 SW 6 9 29.93 1014 10 16 0.00 0.00
7:54 am 07:54 Partly Cloudy 84 28.9 77 25 80 80 SW 9 15 29.94 1014 10 16 0.00 0.00
8:54 am 08:54 Mostly Sunny 85 29.4 77 25 77 77 SW 10 17 29.94 1014 10 16 0.00 0.00
9:54 am 09:54 Partly Cloudy 88 31.1 77 25 70 70 SSW 7 11 29.93 1014 10 16 0.00 0.00
10:54 am 10:54 Mostly Sunny 90 32.2 77 25 66 66 WSW 8 13 29.93 1014 10 16 0.00 0.00
11:54 am 11:54 Mostly Sunny 92 33.3 77 25 62 62 SSW 7 11 29.92 1013 10 16 0.00 0.00
12:54 pm 12:54 Partly Cloudy 93 33.9 76 24.4 58 58 WSW 9 15 29.91 1013 10 16 0.00 0.00
1:54 pm 13:54 Partly Cloudy 94 34.4 77 25 58 58 WSW 8 13 29.90 1012 10 16 0.00 0.00
2:54 pm 14:54 Partly Cloudy 96 35.6 77 25 54 54 S 9 15 29.88 1012 10 16 0.00 0.00
3:54 pm 15:54 Partly Cloudy 97 36.1 76 24.4 51 51 SSW 13 20 29.87 1011 10 16 0.00 0.00
4:54 pm 16:54 Partly Cloudy 96 35.6 75 23.9 51 51 SSW 12 19 29.86 1011 10 16 0.00 0.00
5:54 pm 17:54 Partly Cloudy 96 35.6 74 23.3 49 49 SW 18 30 29.85 1011 10 16 0.00 0.00
6:54 pm 18:54 Partly Cloudy 94 34.4 75 23.9 54 54 SW 16 26 29.84 1011 10 16 0.00 0.00
7:54 pm 19:54 Partly Cloudy 92 33.3 75 23.9 58 58 SW 12 19 29.87 1012 10 16 0.00 0.00
8:54 pm 20:54 Partly Cloudy 91 32.8 76 24.4 61 61 SW 6 9 29.89 1012 10 16 0.00 0.00
9:54 pm 21:54 Partly Cloudy 89 31.7 77 25 68 68 S 9 15 29.91 1013 10 16 0.00 0.00
10:54 pm 22:54 Partly Cloudy 88 31.1 78 25.6 73 73 SSW 8 13 29.91 1013 10 16 0.00 0.00
11:54 pm 23:54 Mostly Cloudy 87 30.6 77 25 72 72 SSW 12 19 29.92 1013 10 16 0.00 0.00

Powered by AerisWeather